Location: Kippel
(46.3991°N, 7.7717°E)
Time: 08:03:23
(UTC+00:00)

Daily predictions for brighter satellites

Satellite Brightness Start Highest point End
(mag) Time Altitude Azimuth Time Altitude Azimuth Time Altitude Azimuth
Cosmos 968 Rocket 4.3 16:38:14 10° N 16:42:52 31° ENE 16:47:26 10° ESE
Cosmos 2058 Rocket 3.9 16:42:16 10° SSE 16:46:14 32° E 16:50:14 10° NNE
Cosmos 1328 4.4 16:43:38 10° NNW 16:47:33 63° W 16:51:27 10° S
NOAA 12 4.1 16:42:25 10° SSE 16:47:41 75° ENE 16:53:01 10° N
FALCON 9 DEB 3.0 16:44:39 10° WSW 16:47:54 87° NNW 16:51:08 10° ENE
CZ-4B R/B 3.3 16:43:31 10° SSE 16:49:08 90° ENE 16:54:40 10° NNW
ADEOS Rocket 3.5 16:45:09 10° NNE 16:51:40 81° WNW 16:58:53 10° SSW
USA 281 3.3 16:46:36 10° SSE 16:53:11 85° ENE 16:59:47 10° NNW
Cosmos 1689 Rocket 3.8 16:51:56 10° NE 16:53:43 15° E 16:55:30 10° SE
FALCON 9 DEB 4.4 16:53:43 10° NW 16:56:44 28° N 16:59:43 10° ENE
FALCON 9 DEB 3.1 16:54:16 10° WSW 16:57:29 70° NNW 17:00:41 10° ENE
CZ-4C R/B 4.2 16:54:02 10° NNW 16:58:41 20° NNE 17:03:55 10° ENE
Cosmos 2227 Rocket 2.4 16:53:42 10° NNW 16:59:13 52° ENE 17:04:44 10° SE
Cosmos 1892 3.6 16:56:45 10° NNE 17:00:06 27° ENE 17:03:27 10° SE
Cosmos 2263 Rocket 4.0 16:57:38 10° N 17:00:26 14° NE 17:03:14 10° ENE
Cosmos 1110 Rocket 4.4 16:55:13 10° SSW 17:00:27 70° WNW 17:05:40 10° NNE
Cosmos 1939 Rocket 3.4 16:57:48 10° SE 17:01:22 34° ENE 17:04:55 10° N
Cosmos 1302 Rocket 4.1 16:57:16 10° S 17:02:26 60° ESE 17:07:38 10° NNE
H-2A R/B 3.0 17:02:12 10° N 17:06:13 48° WNW 17:10:10 10° SW
USA 307 3.3 17:02:15 10° NW 17:06:25 48° NNE 17:10:16 12° E
COSMO-SKYMED 1 3.2 17:04:04 10° NNE 17:08:04 35° E 17:12:02 10° SSE
Envisat 4.3 17:03:27 10° S 17:08:20 47° W 17:13:15 10° NNW
SAR-Lupe-4 3.9 17:06:22 10° NNE 17:09:47 41° E 17:13:11 10° S
Cosmos 1300 2.7 17:06:31 10° S 17:10:20 87° W 17:14:11 10° N
USA 308 3.2 17:07:13 10° NW 17:11:25 50° NNE 17:15:03 13° E
Cosmos 1400 Rocket 2.9 17:07:58 10° S 17:12:00 58° E 17:16:01 10° NNE
Cosmos 1486 Rocket 4.2 17:07:27 10° NNW 17:12:42 54° ENE 17:17:54 10° SE
Cosmos 1697 Rocket 3.4 17:08:40 10° SSE 17:13:31 31° ESE 17:18:23 10° NE
CZ-4B R/B 1.1 17:10:36 10° NNE 17:13:48 83° E 17:16:55 10° SSW
Cosmos 1825 3.6 17:13:00 10° NNE 17:15:41 18° ENE 17:17:29 14° ESE
ERS-2 2.2 17:13:57 10° NNE 17:17:36 82° WNW 17:21:15 10° SSW
Helios 1A Rocket 3.4 17:14:54 10° SE 17:18:41 37° ENE 17:22:29 10° N
Meteor 2-8 Rocket 4.4 17:14:12 10° S 17:20:12 65° E 17:26:18 10° NNE
YAOGAN 1 3.4 17:17:22 10° SE 17:21:06 29° ENE 17:24:52 10° N
S3M 4.4 17:15:55 10° SSE 17:21:31 39° E 17:27:10 10° NNE
BREEZE-M TANK 3.2 17:12:35 10° W 17:22:10 80° S 17:24:59 17° E
Cosmos 1503 Rocket 4.5 17:17:56 10° N 17:22:50 39° ENE 17:27:46 10° SE
NOAA 11 4.3 17:20:32 10° SSE 17:25:59 84° WSW 17:31:27 10° NNW
CZ-2D R/B 3.4 17:23:02 10° SE 17:26:41 46° ENE 17:30:21 10° N
Cosmos 1340 2.6 17:23:13 10° N 17:27:02 86° E 17:30:48 10° S
Cosmos 44 4.0 17:23:14 10° WSW 17:27:39 49° NW 17:32:20 10° NNE
SAR-Lupe-1 4.0 17:24:05 10° NNE 17:27:39 65° ESE 17:31:10 10° S
Okean O Rocket 3.1 17:23:53 10° S 17:27:59 40° W 17:32:07 10° NNW
Cosmos 2228 4.3 17:24:41 10° SSW 17:28:45 43° WNW 17:32:52 10° N
CZ-4 R/B 1.8 17:25:56 10° SE 17:29:31 37° ENE 17:33:06 10° N
Cosmos 1726 Rocket 4.2 17:25:15 10° SSW 17:29:32 59° WNW 17:33:54 10° N
SL-4 R/B 2.3 17:31:24 10° WNW 17:34:49 42° NNE 17:36:32 25° ENE
Cosmos 1346 Rocket 2.9 17:30:57 10° N 17:34:51 51° ENE 17:38:44 10° SSE
Aureole 3 2.8 17:32:12 10° SSW 17:35:15 72° W 17:38:15 10° N
Cosmos 2058 3.0 17:31:39 10° N 17:35:39 48° ENE 17:39:37 10° SSE
Cosmos 1354 Rocket 4.3 17:30:40 10° N 17:35:42 44° ENE 17:40:43 10° SE
Cosmos 1980 Rocket 3.1 17:32:40 10° SSE 17:37:12 26° ESE 17:39:22 20° ENE
Cosmos 2151 4.5 17:35:21 10° NNE 17:37:30 18° NE 17:37:30 18° NE
Cosmos 2297 Rocket 2.5 17:33:08 10° NNW 17:38:48 70° WSW 17:44:24 10° SSE
Cosmos 1992 Rocket 4.1 17:33:58 10° S 17:38:59 51° ESE 17:44:01 10° NNE
PSLV R/B 3.9 17:36:04 10° NNE 17:40:13 61° ESE 17:44:17 10° S
In-Cosmos 22 Rocket 4.2 17:35:01 10° NNW 17:40:25 85° W 17:45:54 10° S
CZ-2C R/B 3.4 17:37:37 10° SE 17:43:13 53° ENE 17:48:38 10° N
Cosmos 1315 Rocket 3.0 17:41:59 10° S 17:45:47 47° E 17:49:40 10° NNE
Cosmos 1553 Rocket 4.0 17:43:24 10° S 17:49:46 88° E 17:56:03 10° N
Cosmos 220 Rocket 3.9 17:47:12 10° SSW 17:51:32 72° ESE 17:55:51 11° NNE
Meteor 2-15 4.3 17:47:17 10° S 17:53:24 76° E 17:59:32 10° NNE
BREEZE-M R/B 3.6 17:51:12 10° WNW 17:55:07 70° NNE 17:59:00 27° E
Meteor 2-10 Rocket 3.4 17:50:21 10° S 17:55:37 75° E 18:00:44 10° NNE
SKYMED 2 3.7 17:51:54 10° N 17:56:15 75° WNW 18:00:34 10° SSW
USA 305 2.8 17:51:59 10° WNW 17:56:19 87° NNE 17:58:11 33° ESE
Cosmos 1455 2.0 17:53:53 10° S 17:57:37 65° E 18:01:25 10° NNE
Cosmos 2360 4.3 17:54:40 10° S 18:00:14 56° ESE 18:04:36 17° NE
SeaSat 1 3.2 18:00:38 30° ENE 18:01:14 31° NE 18:05:34 10° N
NOSS 3-4 (A) 4.1 17:55:35 10° NNW 18:02:12 47° NE 18:05:39 29° E
NOSS 3-4 (C) 4.1 17:55:42 10° NNW 18:02:18 47° NE 18:05:43 29° E
USA 306 2.8 17:58:31 10° WNW 18:02:49 85° SW 18:04:25 38° SE
H-2A R/B 2.2 17:58:23 10° SSE 18:03:40 56° ENE 18:09:00 10° N
Okean-O 2.7 18:00:39 10° SSE 18:05:05 81° WSW 18:09:33 10° NNW
FALCON 9 DEB 4.3 18:04:37 10° W 18:07:33 30° NNW 18:07:57 29° N
MOS 1 Rocket 3.4 18:04:09 10° NNE 18:08:47 52° E 18:13:42 10° S
FALCON 9 DEB 4.3 18:06:38 10° WNW 18:09:30 29° NNW 18:09:47 29° N
Cosmos 2278 3.8 18:05:04 10° S 18:10:31 49° ESE 18:12:46 32° NE
NOSS 3-3 (A) 3.8 18:05:40 10° SW 18:11:29 84° SE 18:16:10 20° NE
NOSS 3-3 (C) 3.8 18:05:46 10° SSW 18:11:36 83° SE 18:16:14 20° NE
USA 215 4.0 18:10:10 26° ENE 18:13:02 39° NNE 18:18:59 10° NW
ATLAS 5 CENTAUR R/B 4.3 18:14:03 10° NNW 18:15:45 12° N 18:17:31 10° NNE
Cosmos 1745 Rocket 4.2 18:09:47 10° NNW 18:16:05 76° W 18:22:25 10° S
GEOS 3 Rocket 3.8 18:17:20 43° E 18:18:50 58° NE 18:24:07 10° NNW
Cosmos 44 Rocket 3.2 18:14:17 10° SSW 18:19:00 66° ESE 18:19:57 52° ENE
Cosmos 1408 3.4 18:15:38 10° NNW 18:19:12 52° W 18:22:46 10° S
Lacrosse 5 3.0 18:15:02 10° NW 18:19:26 29° NNE 18:20:11 27° NNE
ARGOS 3.2 18:17:21 34° SE 18:19:31 57° ENE 18:24:51 10° N
Cosmos 2082 3.9 18:13:56 10° NNW 18:19:41 72° WSW 18:25:22 10° SSE
Meteor 2-3 Rocket 4.3 18:14:43 10° N 18:19:36 38° ENE 18:19:36 38° ENE
ATLAS 2AS CENTAUR R/B 3.1 18:16:57 10° NW 18:24:19 50° NE 18:26:17 40° E
Cosmos 1689 Rocket 4.4 18:22:30 10° NNW 18:24:54 23° WNW 18:27:16 10° SW
Cosmos 1076 Rocket 4.1 18:29:26 10° NNW 18:33:35 54° W 18:37:44 10° S
FALCON 9 DEB 4.4 18:30:42 10° WNW 18:32:58 38° NW 18:32:58 38° NW
Cosmos 2369 3.8 18:29:16 10° SSW 18:34:58 76° WNW 18:39:11 19° NNE
Cosmos 1777 Rocket 4.1 18:33:55 10° NNW 18:38:35 58° NE 18:38:35 58° NE
CSL-04 Rocket 3.8 18:35:23 10° S 18:40:56 75° WSW 18:46:28 10° NNW
Cosmos 2227 Rocket 4.2 18:38:18 10° NW 18:42:58 27° WSW 18:47:37 10° SSW
Cosmos 1709 Rocket 4.1 18:39:13 10° N 18:45:37 79° W 18:51:59 10° S
Cosmos 2263 Rocket 2.4 18:40:04 10° NNW 18:45:08 54° NE 18:45:08 54° NE
USA 307 3.8 18:42:24 10° WNW 18:46:29 44° SW 18:46:29 44° SW
CZ-4C R/B 3.3 18:42:33 10° NNW 18:49:06 42° NE 18:49:38 42° NE
Cosmos 1825 3.7 18:47:51 10° NNW 18:51:19 34° W 18:52:23 28° SW
USA 308 4.0 18:47:24 10° WNW 18:51:15 40° SW 18:51:15 40° SW
YAOGAN 1 4.4 18:53:22 10° SSW 18:57:09 30° W 19:00:59 10° NW
Cosmos 1697 Rocket 3.6 18:51:54 10° SW 18:57:17 45° NW 19:01:26 17° NNE
CZ-4 R/B 4.0 19:01:57 10° SW 19:04:42 18° W 19:07:26 10° NW
Cosmos 2315 Rocket 4.3 19:04:25 10° SSW 19:10:33 64° WNW 19:16:44 10° N
Atlas Centaur 2 4.3 19:05:04 10° WSW 19:11:31 25° S 19:12:39 24° S
SL-4 R/B 4.3 19:10:53 10° WNW 19:12:08 20° WNW 19:12:08 20° WNW
Cosmos 1980 Rocket 2.8 19:15:21 10° SW 19:20:51 54° WNW 19:21:12 53° NW
SeaSat 1 4.1 19:40:26 31° WNW 19:40:26 31° WNW 19:43:20 10° NW
H-2A R/B 4.3 19:39:10 10° SW 19:43:24 23° W 19:47:42 10° NW
NOSS 3-4 (A) 4.4 19:46:29 10° NW 19:53:07 52° WSW 19:53:07 52° WSW
NOSS 3-4 (C) 4.4 19:46:36 10° NW 19:53:11 52° WSW 19:53:11 52° WSW
USA 215 4.0 19:57:31 47° NW 19:57:31 47° NW 20:02:03 10° NW
Lacrosse 5 4.3 19:58:02 10° NW 19:59:23 18° NW 19:59:23 18° NW
ATLAS 2AS CENTAUR R/B 3.8 20:08:17 10° NW 20:13:44 41° W 20:13:44 41° W
CZ-4C R/B 4.1 20:30:56 10° NW 20:34:50 36° NW 20:34:50 36° NW
